Selinsgrove, PA

10:49 AM EST on December 14, 2019 (GMT -0500)
Penn Valley

Weather History for KSEG - October, 2019

Change the Weather History Date:

Wednesday, October 16, 2019

  Actual Average (WUND) Record (WUND)
Temperature  
Mean Temperature 50 °F -  
Max Temperature 62 °F - - (-1)
Min Temperature 39 °F - - (-1)
Degree Days  
Heating Degree Days 14    
Moisture  
Dew Point 50 °F    
Average Humidity 87    
Maximum Humidity 97    
Minimum Humidity 66    
Precipitation  
Precipitation 0.80 in - - ()
Sea Level Pressure  
Sea Level Pressure 29.66 in    
Wind  
Wind Speed 5 mph (South)    
Max Wind Speed 16 mph    
Max Gust Speed 24 mph    
Visibility 7 miles    
Events Rain    
Averages and records for this station are not official NWS values.
T = Trace of Precipitation, MM = Missing Value Source: NWS Daily Summary

Daily Weather History Graph

Daily Weather History Graph

Search for Another Location

Airport or City:

Astronomy

Oct. 16, 2019 Rise Set
Actual Time 7:19 AM EDT 6:25 PM EDT
Civil Twilight 6:51 AM EDT 6:53 PM EDT
Nautical Twilight 6:20 AM EDT 7:25 PM EDT
Astronomical Twilight 5:48 AM EDT 7:56 PM EDT
Moon 8:17 PM EDT (10/16) 9:48 AM EDT (10/16)
Length of Visible Light 12h 01m
Length of Day
11h 06m
Waning Gibbous, 93% of the Moon is Illuminated
Oct 16
Waning Gibbous
Oct 21
Last Quarter
Oct 27
New
Nov 4
First Quarter
Nov 12
Full

Hourly Weather History & Observations

Time (EDT) Temp. Windchill Dew Point Humidity Pressure Visibility Wind Dir Wind Speed Gust Speed Precip Events Conditions
12:53 AM 39.9 °F 37.8 °F 39.0 °F 97% 30.00 in 10.0 mi WNW 3.5 mph - N/A   Clear
1:53 AM 39.0 °F - 37.9 °F 96% 29.98 in 10.0 mi Calm Calm - N/A   Clear
2:42 AM 41.0 °F - 39.9 °F 96% 29.96 in 10.0 mi Calm Calm - N/A   Mostly Cloudy
2:53 AM 41.0 °F - 39.9 °F 96% 29.96 in 10.0 mi Calm Calm - N/A   Overcast
3:53 AM 46.9 °F - 45.0 °F 93% 29.92 in 10.0 mi Calm Calm - N/A   Overcast
4:53 AM 55.9 °F - 51.1 °F 84% 29.90 in 10.0 mi South 8.1 mph - N/A   Overcast
5:53 AM 55.9 °F - 51.1 °F 84% 29.87 in 10.0 mi SSE 6.9 mph - N/A   Overcast
6:53 AM 57.0 °F - 52.0 °F 83% 29.84 in 10.0 mi SSE 5.8 mph - N/A   Overcast
7:53 AM 57.9 °F - 53.1 °F 84% 29.84 in 10.0 mi South 8.1 mph - N/A   Overcast
8:53 AM 59.0 °F - 53.1 °F 81% 29.81 in 10.0 mi South 9.2 mph - N/A   Overcast
9:53 AM 61.0 °F - 54.0 °F 78% 29.76 in 10.0 mi South 16.1 mph 24.2 mph N/A   Overcast
10:53 AM 62.1 °F - 54.0 °F 75% 29.73 in 10.0 mi South 11.5 mph 19.6 mph N/A   Mostly Cloudy
11:53 AM 60.1 °F - 55.9 °F 86% 29.71 in 5.0 mi South 8.1 mph - 0.03 in Rain Light Rain
12:53 PM 57.9 °F - 55.9 °F 93% 29.67 in 3.0 mi ESE 6.9 mph - 0.10 in Rain Rain
1:53 PM 57.9 °F - 55.0 °F 90% 29.60 in 4.0 mi SE 10.4 mph 21.9 mph 0.19 in Rain Rain
2:53 PM 57.0 °F - 55.9 °F 96% 29.57 in 5.0 mi Variable 5.8 mph - 0.10 in Rain Light Rain
3:01 PM 57.0 °F - 55.0 °F 93% 29.56 in 4.0 mi South 6.9 mph - 0.02 in Rain Rain
3:17 PM 57.0 °F - 55.9 °F 96% 29.55 in 3.0 mi SSW 4.6 mph - 0.08 in Rain Rain
3:20 PM 57.0 °F - 55.9 °F 96% 29.55 in 2.0 mi SW 3.5 mph - 0.09 in Rain Rain
3:37 PM 57.0 °F - 55.9 °F 96% 29.55 in 2.0 mi Variable 3.5 mph - 0.17 in Rain Rain
3:53 PM 57.0 °F - 55.9 °F 96% 29.55 in 3.0 mi Variable 4.6 mph - 0.22 in Rain Light Rain
3:58 PM 57.0 °F - 55.9 °F 96% 29.55 in 4.0 mi Variable 3.5 mph - 0.00 in Rain Light Rain
4:07 PM 57.0 °F - 55.9 °F 96% 29.54 in 9.0 mi Calm Calm - 0.01 in Rain Light Rain
4:20 PM 57.0 °F - 55.0 °F 93% 29.54 in 3.0 mi Variable 4.6 mph - 0.04 in Rain Rain
4:37 PM 55.9 °F - 54.0 °F 93% 29.54 in 3.0 mi Variable 4.6 mph - 0.07 in Rain Rain
4:44 PM 55.0 °F - 53.1 °F 93% 29.53 in 2.0 mi Variable 3.5 mph - 0.10 in Rain Rain
4:53 PM 55.0 °F - 53.1 °F 93% 29.53 in 2.5 mi Variable 3.5 mph - 0.12 in Rain Rain
5:01 PM 55.0 °F - 53.1 °F 93% 29.53 in 3.0 mi Calm Calm - 0.02 in Rain Light Rain
5:53 PM 53.1 °F - 48.9 °F 86% 29.55 in 10.0 mi Variable 3.5 mph - 0.04 in Rain Light Rain
6:53 PM 52.0 °F - 48.9 °F 89% 29.54 in 10.0 mi Calm Calm - 0.00 in   Overcast
7:09 PM 52.0 °F - 46.9 °F 83% 29.54 in 10.0 mi Variable 4.6 mph - N/A   Mostly Cloudy
7:53 PM 52.0 °F - 43.0 °F 71% 29.55 in 10.0 mi Variable 6.9 mph - N/A   Mostly Cloudy
8:53 PM 50.0 °F - 39.0 °F 66% 29.54 in 10.0 mi Variable 6.9 mph - N/A   Mostly Cloudy
9:53 PM 50.0 °F - 39.9 °F 68% 29.53 in 10.0 mi WNW 5.8 mph - N/A   Overcast
10:53 PM 50.0 °F - 39.9 °F 68% 29.52 in 10.0 mi Variable 6.9 mph 17.3 mph N/A   Overcast
11:53 PM 51.1 °F - 39.9 °F 66% 29.50 in 10.0 mi Variable 6.9 mph 17.3 mph N/A   Overcast